ANZ380 YPPH-YBBN

Flight info

Callsign ANZ380
Flight time N/A
Altitude 41000
Route PH Y31 LAKIR Y69 BOSLI Y67 KG J141 LEC T33 ANROM Y62 IGDIT Y27 BN
Aircraft A359/H-SDE2E3GHIJ3J4J5LM1ORWXY/LB1D1

Departure

Time 2026-05-05 19:58
Airport Perth International Airport (YPPH)

Arrival

Time N/A
Airport Brisbane International Airport (YBBN)
Time Latitude Longitude Altitude Speed Heading
2026-05-05 19:28 -31.94040 115.97308 74 ft 0 kts 154°
2026-05-05 19:49 -31.94020 115.97297 64 ft 4 kts 165°
2026-05-05 19:50 -31.94006 115.97295 69 ft 4 kts 181°
2026-05-05 19:50 -31.93980 115.97296 69 ft 4 kts 180°
2026-05-05 19:50 -31.93953 115.97297 65 ft 4 kts 189°
2026-05-05 19:50 -31.93939 115.97300 62 ft 1 kts 194°
2026-05-05 19:51 -31.93937 115.97301 64 ft 0 kts 194°
2026-05-05 19:52 -31.93941 115.97299 65 ft 3 kts 196°
2026-05-05 19:53 -31.93974 115.97262 65 ft 10 kts 248°
2026-05-05 19:53 -31.93966 115.97157 69 ft 15 kts 282°
2026-05-05 19:53 -31.93937 115.97025 67 ft 18 kts 284°
2026-05-05 19:53 -31.93947 115.96878 61 ft 18 kts 239°
2026-05-05 19:54 -31.94049 115.96841 68 ft 16 kts 187°
2026-05-05 19:54 -31.94169 115.96822 68 ft 19 kts 187°
2026-05-05 19:54 -31.94321 115.96796 68 ft 24 kts 194°
2026-05-05 19:54 -31.94483 115.96742 69 ft 25 kts 195°
2026-05-05 19:55 -31.94658 115.96685 62 ft 27 kts 195°
2026-05-05 19:55 -31.94846 115.96625 64 ft 29 kts 194°
2026-05-05 19:55 -31.95042 115.96566 68 ft 29 kts 194°
2026-05-05 19:55 -31.95234 115.96508 68 ft 29 kts 194°
2026-05-05 19:56 -31.95425 115.96450 84 ft 28 kts 194°
2026-05-05 19:56 -31.95618 115.96393 87 ft 29 kts 194°
2026-05-05 19:56 -31.95812 115.96334 84 ft 29 kts 194°
2026-05-05 19:56 -31.95904 115.96273 86 ft 10 kts 241°
2026-05-05 19:57 -31.95908 115.96185 85 ft 12 kts 277°
2026-05-05 19:57 -31.95887 115.96078 86 ft 15 kts 285°
2026-05-05 19:57 -31.95839 115.95989 84 ft 12 kts 346°
2026-05-05 19:57 -31.95738 115.96009 83 ft 24 kts 13°
2026-05-05 19:58 -31.95336 115.96126 82 ft 95 kts 13°
2026-05-05 19:58 -31.94487 115.96371 68 ft 155 kts 13°
2026-05-05 19:58 -31.93320 115.96621 461 ft 176 kts 13°
2026-05-05 19:58 -31.92220 115.97157 1130 ft 178 kts 44°
2026-05-05 19:59 -31.91666 115.98423 1804 ft 180 kts 87°
2026-05-05 19:59 -31.91816 115.99956 2277 ft 200 kts 94°
2026-05-05 19:59 -31.91638 116.01670 2670 ft 223 kts 73°
2026-05-05 19:59 -31.91076 116.03432 3262 ft 237 kts 66°
2026-05-05 20:00 -31.90392 116.05231 3978 ft 244 kts 66°
2026-05-05 20:00 -31.89711 116.07099 4647 ft 255 kts 69°
2026-05-05 20:00 -31.89068 116.09097 5279 ft 266 kts 72°
2026-05-05 20:00 -31.88479 116.11184 6067 ft 271 kts 75°
2026-05-05 20:01 -31.87935 116.13313 6957 ft 272 kts 76°
2026-05-05 20:01 -31.87411 116.15467 7825 ft 276 kts 77°
2026-05-05 20:01 -31.86891 116.17659 8695 ft 280 kts 77°
2026-05-05 20:01 -31.86365 116.19881 9581 ft 284 kts 77°
2026-05-05 20:02 -31.85827 116.22135 10413 ft 291 kts 76°
2026-05-05 20:02 -31.85257 116.24512 10818 ft 312 kts 76°
2026-05-05 20:02 -31.84644 116.27043 11176 ft 332 kts 76°
2026-05-05 20:02 -31.83987 116.29730 11550 ft 351 kts 76°
2026-05-05 20:03 -31.83296 116.32536 12060 ft 363 kts 76°
2026-05-05 20:03 -31.82583 116.35417 12724 ft 369 kts 75°
2026-05-05 20:03 -31.81857 116.38339 13419 ft 375 kts 76°
2026-05-05 20:03 -31.81121 116.41307 14133 ft 380 kts 76°
2026-05-05 20:04 -31.80380 116.44302 14801 ft 385 kts 76°
2026-05-05 20:04 -31.79629 116.47341 15461 ft 389 kts 75°
2026-05-05 20:04 -31.78867 116.50415 16125 ft 394 kts 75°
2026-05-05 20:04 -31.78096 116.53526 16803 ft 399 kts 75°
2026-05-05 20:05 -31.77314 116.56672 17455 ft 403 kts 75°
2026-05-05 20:05 -31.76489 116.59837 18095 ft 408 kts 71°
2026-05-05 20:05 -31.75278 116.62875 18723 ft 415 kts 59°
2026-05-05 20:05 -31.73583 116.65642 19288 ft 420 kts 51°
2026-05-05 20:06 -31.71660 116.68250 19859 ft 425 kts 47°
2026-05-05 20:06 -31.69616 116.70786 20436 ft 429 kts 46°
2026-05-05 20:06 -31.67515 116.73299 21034 ft 434 kts 45°
2026-05-05 20:06 -31.65387 116.75828 21650 ft 438 kts 45°
2026-05-05 20:07 -31.63247 116.78393 22252 ft 442 kts 46°
2026-05-05 20:07 -31.61095 116.80999 22859 ft 446 kts 46°
2026-05-05 20:07 -31.58930 116.83640 23473 ft 451 kts 46°
2026-05-05 20:07 -31.56797 116.86359 24028 ft 456 kts 50°
2026-05-05 20:08 -31.54957 116.89395 24543 ft 459 kts 59°
2026-05-05 20:08 -31.53360 116.92653 25108 ft 461 kts 62°
2026-05-05 20:08 -31.51849 116.95982 25643 ft 464 kts 63°
2026-05-05 20:08 -31.50374 116.99362 26176 ft 467 kts 64°
2026-05-05 20:09 -31.48907 117.02773 26699 ft 470 kts 64°
2026-05-05 20:09 -31.47433 117.06199 27224 ft 473 kts 64°
2026-05-05 20:09 -31.45941 117.09646 27728 ft 476 kts 63°
2026-05-05 20:09 -31.44434 117.13102 28248 ft 479 kts 63°
2026-05-05 20:10 -31.42914 117.16591 28759 ft 482 kts 64°
2026-05-05 20:10 -31.41651 117.20226 29257 ft 484 kts 73°
2026-05-05 20:10 -31.40835 117.24060 29749 ft 486 kts 79°
2026-05-05 20:10 -31.40218 117.27951 30216 ft 488 kts 81°
2026-05-05 20:11 -31.39688 117.31887 30633 ft 491 kts 82°
2026-05-05 20:11 -31.39194 117.35857 30948 ft 495 kts 83°
2026-05-05 20:11 -31.38710 117.39810 31240 ft 499 kts 83°
2026-05-05 20:11 -31.38210 117.43840 31551 ft 502 kts 82°
2026-05-05 20:12 -31.37695 117.47892 31855 ft 505 kts 82°
2026-05-05 20:12 -31.37166 117.51974 32153 ft 509 kts 82°
2026-05-05 20:12 -31.36627 117.56080 32428 ft 512 kts 82°
2026-05-05 20:12 -31.36082 117.60194 32723 ft 514 kts 82°
2026-05-05 20:13 -31.35531 117.64335 33130 ft 514 kts 82°
2026-05-05 20:13 -31.34979 117.68471 33522 ft 514 kts 82°
2026-05-05 20:13 -31.34426 117.72602 33893 ft 515 kts 82°
2026-05-05 20:13 -31.33872 117.76746 34259 ft 516 kts 82°
2026-05-05 20:14 -31.33316 117.80891 34595 ft 516 kts 82°
2026-05-05 20:14 -31.32760 117.85025 34928 ft 515 kts 82°
2026-05-05 20:14 -31.32201 117.89173 35248 ft 515 kts 82°
2026-05-05 20:14 -31.31642 117.93312 35571 ft 515 kts 82°
2026-05-05 20:15 -31.31082 117.97445 35874 ft 515 kts 82°
2026-05-05 20:15 -31.30522 118.01576 36171 ft 515 kts 82°
2026-05-05 20:15 -31.29959 118.05714 36453 ft 516 kts 82°
2026-05-05 20:15 -31.29394 118.09856 36747 ft 516 kts 82°
2026-05-05 20:16 -31.28827 118.14000 37035 ft 515 kts 82°
2026-05-05 20:16 -31.28260 118.18136 37322 ft 516 kts 82°
2026-05-05 20:16 -31.27699 118.22220 37597 ft 516 kts 82°
2026-05-05 20:16 -31.27122 118.26410 37856 ft 516 kts 82°
2026-05-05 20:17 -31.26550 118.30552 38120 ft 516 kts 82°
2026-05-05 20:17 -31.25978 118.34679 38390 ft 515 kts 82°
2026-05-05 20:17 -31.25405 118.38808 38641 ft 515 kts 82°
2026-05-05 20:17 -31.24828 118.42955 38884 ft 516 kts 82°
2026-05-05 20:18 -31.24261 118.47029 39115 ft 515 kts 82°
2026-05-05 20:18 -31.23684 118.51155 39305 ft 515 kts 82°
2026-05-05 20:18 -31.23104 118.55293 39468 ft 516 kts 82°
2026-05-05 20:18 -31.22523 118.59429 39630 ft 517 kts 82°
2026-05-05 20:19 -31.21939 118.63579 39796 ft 517 kts 82°
2026-05-05 20:19 -31.21354 118.67724 39950 ft 517 kts 82°
2026-05-05 20:19 -31.20767 118.71873 40115 ft 518 kts 82°
2026-05-05 20:19 -31.20179 118.76018 40265 ft 518 kts 82°
2026-05-05 20:20 -31.19590 118.80164 40413 ft 519 kts 82°
2026-05-05 20:20 -31.18997 118.84326 40559 ft 519 kts 82°
2026-05-05 20:20 -31.18402 118.88488 40698 ft 520 kts 82°
2026-05-05 20:20 -31.17809 118.92645 40836 ft 520 kts 81°
2026-05-05 20:21 -31.17384 118.96837 40966 ft 520 kts 86°
2026-05-05 20:21 -31.17094 119.01052 41099 ft 520 kts 87°
2026-05-05 20:21 -31.16860 119.05255 41234 ft 520 kts 88°
2026-05-05 20:21 -31.16650 119.09471 41358 ft 520 kts 88°
2026-05-05 20:22 -31.16445 119.13702 41416 ft 522 kts 88°
2026-05-05 20:22 -31.16024 119.22148 41417 ft 521 kts 88°
2026-05-05 20:23 -31.15578 119.30592 41415 ft 521 kts 88°
2026-05-05 20:23 -31.15120 119.39035 41418 ft 521 kts 88°
2026-05-05 20:24 -31.14655 119.47480 41417 ft 521 kts 88°
2026-05-05 20:24 -31.14185 119.55927 41415 ft 521 kts 88°
2026-05-05 20:25 -31.13710 119.64368 41419 ft 521 kts 88°
2026-05-05 20:25 -31.13230 119.72815 41421 ft 521 kts 88°
2026-05-05 20:26 -31.12747 119.81209 41420 ft 521 kts 88°
2026-05-05 20:26 -31.12253 119.89703 41418 ft 522 kts 87°
2026-05-05 20:27 -31.11759 119.98088 41422 ft 522 kts 87°
2026-05-05 20:27 -31.11257 120.06523 41423 ft 522 kts 87°
2026-05-05 20:28 -31.10749 120.14971 41426 ft 522 kts 87°
2026-05-05 20:28 -31.10232 120.23471 41426 ft 522 kts 87°
2026-05-05 20:29 -31.09716 120.31859 41424 ft 522 kts 87°
2026-05-05 20:29 -31.09192 120.40303 41418 ft 522 kts 87°
2026-05-05 20:30 -31.08662 120.48733 41426 ft 522 kts 87°
2026-05-05 20:30 -31.08126 120.57184 41427 ft 522 kts 87°
2026-05-05 20:31 -31.07585 120.65619 41413 ft 522 kts 87°
2026-05-05 20:31 -31.07038 120.74073 41429 ft 522 kts 87°
2026-05-05 20:32 -31.06485 120.82518 41431 ft 522 kts 87°
2026-05-05 20:32 -31.05927 120.90957 41417 ft 522 kts 87°
2026-05-05 20:33 -31.05364 120.99403 41422 ft 522 kts 86°
2026-05-05 20:33 -31.04795 121.07848 41416 ft 522 kts 86°
2026-05-05 20:34 -31.04220 121.16284 41414 ft 522 kts 86°
2026-05-05 20:34 -31.03640 121.24731 41416 ft 523 kts 86°
2026-05-05 20:35 -31.03053 121.33186 41415 ft 523 kts 86°
2026-05-05 20:35 -31.02461 121.41635 41405 ft 523 kts 86°
2026-05-05 20:36 -31.01965 121.48653 41405 ft 523 kts 86°
2026-05-05 20:36 -31.01364 121.57099 41420 ft 523 kts 86°
2026-05-05 20:37 -31.00757 121.65534 41409 ft 523 kts 86°
2026-05-05 20:37 -31.00144 121.73975 41412 ft 523 kts 86°
2026-05-05 20:38 -30.99526 121.82424 41409 ft 523 kts 86°
2026-05-05 20:38 -30.98902 121.90861 41423 ft 523 kts 86°
2026-05-05 20:39 -30.98272 121.99308 41410 ft 523 kts 86°
2026-05-05 20:39 -30.97637 122.07759 41415 ft 523 kts 86°
2026-05-05 20:40 -30.96996 122.16200 41412 ft 523 kts 86°
2026-05-05 20:40 -30.96353 122.24602 41421 ft 524 kts 86°
2026-05-05 20:41 -30.95701 122.33049 41427 ft 524 kts 86°
2026-05-05 20:41 -30.95043 122.41501 41422 ft 524 kts 86°
2026-05-05 20:42 -30.94379 122.49955 41426 ft 524 kts 86°
2026-05-05 20:42 -30.93705 122.58465 41421 ft 525 kts 86°
2026-05-05 20:43 -30.93034 122.66874 41417 ft 524 kts 85°
2026-05-05 20:43 -30.92353 122.75330 41418 ft 524 kts 85°
2026-05-05 20:44 -30.91667 122.83783 41417 ft 525 kts 85°
2026-05-05 20:44 -30.90975 122.92245 41421 ft 525 kts 85°
2026-05-05 20:45 -30.89927 123.04916 41424 ft 525 kts 85°
2026-05-05 20:45 -30.89221 123.13380 41414 ft 525 kts 85°
2026-05-05 20:46 -30.88510 123.21830 41421 ft 525 kts 85°
2026-05-05 20:46 -30.87793 123.30290 41416 ft 525 kts 85°
2026-05-05 20:47 -30.87070 123.38742 41419 ft 525 kts 85°
2026-05-05 20:47 -30.86342 123.47196 41414 ft 525 kts 85°
2026-05-05 20:48 -30.85608 123.55660 41412 ft 525 kts 85°
2026-05-05 20:48 -30.85069 123.64126 41410 ft 524 kts 91°
2026-05-05 20:49 -30.85143 123.72560 41413 ft 524 kts 92°
2026-05-05 20:49 -30.85304 123.81104 41409 ft 524 kts 92°
2026-05-05 20:50 -30.85462 123.89524 41409 ft 524 kts 92°
2026-05-05 20:50 -30.85606 123.98008 41408 ft 524 kts 92°
2026-05-05 20:51 -30.85739 124.06497 41410 ft 524 kts 92°
2026-05-05 20:51 -30.85865 124.14978 41407 ft 524 kts 92°
2026-05-05 20:52 -30.85986 124.23462 41408 ft 524 kts 92°
2026-05-05 20:52 -30.86102 124.31955 41407 ft 524 kts 92°
2026-05-05 20:53 -30.86212 124.40444 41407 ft 525 kts 92°
2026-05-05 20:53 -30.86317 124.48929 41403 ft 525 kts 92°
2026-05-05 20:54 -30.86416 124.57418 41404 ft 525 kts 92°
2026-05-05 20:54 -30.86510 124.65912 41404 ft 525 kts 92°
2026-05-05 20:55 -30.86599 124.74402 41402 ft 525 kts 92°
2026-05-05 20:55 -30.86681 124.82908 41402 ft 525 kts 92°
2026-05-05 20:56 -30.86758 124.91393 41401 ft 525 kts 92°
2026-05-05 20:56 -30.86830 124.99895 41401 ft 525 kts 91°
2026-05-05 20:57 -30.86896 125.08381 41400 ft 525 kts 91°
2026-05-05 20:57 -30.86957 125.16877 41400 ft 525 kts 91°
2026-05-05 20:58 -30.87012 125.25375 41397 ft 525 kts 91°
2026-05-05 20:58 -30.87061 125.33869 41397 ft 525 kts 91°
2026-05-05 20:59 -30.87105 125.42377 41399 ft 525 kts 91°
2026-05-05 20:59 -30.87144 125.50868 41398 ft 525 kts 91°
2026-05-05 21:00 -30.87176 125.59360 41398 ft 525 kts 91°
2026-05-05 21:00 -30.87203 125.67853 41400 ft 525 kts 91°
2026-05-05 21:01 -30.87225 125.76301 41397 ft 525 kts 91°
2026-05-05 21:01 -30.87242 125.84851 41399 ft 525 kts 91°
2026-05-05 21:02 -30.87251 125.93299 41396 ft 525 kts 91°
2026-05-05 21:02 -30.87249 126.01793 41395 ft 525 kts 91°
2026-05-05 21:03 -30.87241 126.10350 41394 ft 525 kts 91°
2026-05-05 21:03 -30.87228 126.18834 41389 ft 525 kts 91°
2026-05-05 21:04 -30.87211 126.27281 41389 ft 525 kts 90°
2026-05-05 21:04 -30.87188 126.35833 41395 ft 525 kts 90°
2026-05-05 21:05 -30.87159 126.44277 41391 ft 525 kts 90°
2026-05-05 21:05 -30.87125 126.52773 41389 ft 525 kts 90°
2026-05-05 21:06 -30.87085 126.61265 41391 ft 525 kts 90°
2026-05-05 21:06 -30.87006 126.75600 41382 ft 525 kts 90°
2026-05-05 21:07 -30.86891 126.92579 41385 ft 525 kts 90°
2026-05-05 21:07 -30.86763 127.09596 41380 ft 525 kts 91°
2026-05-05 21:08 -30.87120 127.26581 41384 ft 525 kts 92°
2026-05-05 21:08 -30.87462 127.43574 41378 ft 525 kts 92°
2026-05-05 21:09 -30.87740 127.60538 41385 ft 525 kts 91°
2026-05-05 21:09 -30.88000 127.77533 41378 ft 525 kts 91°
2026-05-05 21:10 -30.88239 127.94530 41378 ft 525 kts 91°
2026-05-05 21:10 -30.88455 128.11539 41376 ft 525 kts 91°
2026-05-05 21:11 -30.88649 128.28515 41375 ft 525 kts 91°
2026-05-05 21:11 -30.88821 128.45506 41368 ft 525 kts 91°
2026-05-05 21:12 -30.88970 128.62492 41370 ft 525 kts 91°
2026-05-05 21:12 -30.89098 128.79486 41365 ft 525 kts 91°
2026-05-05 21:13 -30.89203 128.96478 41369 ft 525 kts 91°
2026-05-05 21:13 -30.89286 129.13485 41364 ft 525 kts 90°
2026-05-05 21:14 -30.89346 129.30487 41368 ft 525 kts 90°
2026-05-05 21:14 -30.89384 129.47372 41360 ft 525 kts 90°
2026-05-05 21:15 -30.89401 129.64381 41367 ft 525 kts 90°
2026-05-05 21:15 -30.89395 129.81380 41353 ft 525 kts 90°
2026-05-05 21:16 -30.89367 129.98381 41361 ft 525 kts 90°
2026-05-05 21:16 -30.89316 130.15394 41361 ft 525 kts 90°
2026-05-05 21:17 -30.89244 130.32412 41350 ft 526 kts 90°
2026-05-05 21:17 -30.89149 130.49418 41359 ft 526 kts 90°
2026-05-05 21:18 -30.89032 130.66435 41342 ft 526 kts 89°
2026-05-05 21:18 -30.88892 130.83449 41347 ft 526 kts 89°
2026-05-05 21:19 -30.88730 131.00478 41351 ft 526 kts 89°
2026-05-05 21:19 -30.88546 131.17505 41357 ft 526 kts 89°
2026-05-05 21:20 -30.88340 131.34525 41345 ft 526 kts 89°
2026-05-05 21:20 -30.88111 131.51539 41347 ft 526 kts 89°
2026-05-05 21:21 -30.87861 131.68551 41343 ft 526 kts 89°
2026-05-05 21:21 -30.87587 131.85576 41342 ft 526 kts 89°
2026-05-05 21:22 -30.87343 131.99751 41344 ft 526 kts 89°
2026-05-05 21:22 -30.87029 132.16750 41340 ft 526 kts 89°
2026-05-05 21:23 -30.86635 132.36568 41341 ft 526 kts 88°
2026-05-05 21:23 -30.86273 132.53596 41341 ft 526 kts 88°
2026-05-05 21:24 -30.85953 132.67841 41341 ft 526 kts 88°
2026-05-05 21:24 -30.85549 132.84892 41331 ft 527 kts 88°
2026-05-05 21:25 -30.85123 133.01919 41343 ft 527 kts 88°
2026-05-05 21:25 -30.84674 133.18971 41342 ft 527 kts 88°
2026-05-05 21:26 -30.84203 133.36019 41340 ft 527 kts 88°
2026-05-05 21:26 -30.83711 133.53043 41336 ft 527 kts 88°
2026-05-05 21:27 -30.83193 133.70138 41339 ft 528 kts 88°
2026-05-05 21:27 -30.82655 133.87203 41338 ft 528 kts 87°
2026-05-05 21:28 -30.82095 134.04242 41339 ft 528 kts 87°
2026-05-05 21:28 -30.81510 134.21350 41331 ft 528 kts 87°
2026-05-05 21:29 -30.80904 134.38416 41327 ft 529 kts 87°
2026-05-05 21:29 -30.80274 134.55497 41330 ft 529 kts 87°
2026-05-05 21:30 -30.79622 134.72611 41324 ft 529 kts 87°
2026-05-05 21:30 -30.78947 134.89693 41327 ft 529 kts 86°
2026-05-05 21:31 -30.78250 135.06793 41323 ft 529 kts 86°
2026-05-05 21:31 -30.77530 135.23895 41323 ft 530 kts 86°
2026-05-05 21:32 -30.76793 135.40884 41323 ft 529 kts 86°
2026-05-05 21:32 -30.76023 135.58093 41313 ft 529 kts 86°
2026-05-05 21:33 -30.75241 135.75063 41312 ft 529 kts 86°
2026-05-05 21:33 -30.74432 135.92159 41310 ft 530 kts 86°
2026-05-05 21:34 -30.73599 136.09260 41314 ft 530 kts 86°
2026-05-05 21:34 -30.72744 136.26372 41306 ft 530 kts 85°
2026-05-05 21:35 -30.71866 136.43468 41304 ft 530 kts 85°
2026-05-05 21:35 -30.70965 136.60586 41302 ft 531 kts 85°
2026-05-05 21:36 -30.70043 136.77681 41301 ft 531 kts 85°
2026-05-05 21:36 -30.69097 136.94791 41299 ft 531 kts 85°
2026-05-05 21:37 -30.68126 137.11941 41295 ft 531 kts 85°
2026-05-05 21:37 -30.67134 137.29072 41292 ft 531 kts 85°
2026-05-05 21:38 -30.66118 137.46206 41286 ft 531 kts 84°
2026-05-05 21:38 -30.65088 137.63216 41281 ft 532 kts 84°
2026-05-05 21:39 -30.64021 137.80454 41282 ft 532 kts 84°
2026-05-05 21:39 -30.62946 137.97462 41286 ft 532 kts 84°
2026-05-05 21:40 -30.61840 138.14601 41284 ft 532 kts 84°
2026-05-05 21:40 -30.60710 138.31758 41286 ft 533 kts 84°
2026-05-05 21:41 -30.59599 138.48916 41289 ft 533 kts 84°
2026-05-05 21:41 -30.58581 138.66092 41295 ft 534 kts 84°
2026-05-05 21:42 -30.57522 138.83274 41311 ft 534 kts 84°
2026-05-05 21:42 -30.56433 139.00485 41299 ft 535 kts 84°
2026-05-05 21:43 -30.55324 139.17694 41299 ft 535 kts 84°
2026-05-05 21:43 -30.54191 139.34902 41297 ft 535 kts 83°
2026-05-05 21:44 -30.53034 139.52135 41282 ft 536 kts 83°
2026-05-05 21:44 -30.51856 139.69338 41281 ft 536 kts 83°
2026-05-05 21:45 -30.50651 139.86598 41278 ft 536 kts 83°
2026-05-05 21:45 -30.49423 140.03850 41272 ft 537 kts 83°
2026-05-05 21:46 -30.48172 140.21106 41285 ft 537 kts 83°
2026-05-05 21:46 -30.46900 140.38342 41280 ft 537 kts 83°
2026-05-05 21:47 -30.45602 140.55614 41281 ft 538 kts 82°
2026-05-05 21:47 -30.44281 140.72884 41281 ft 538 kts 82°
2026-05-05 21:48 -30.42936 140.90167 41278 ft 538 kts 82°
2026-05-05 21:48 -30.41567 141.07460 41278 ft 539 kts 82°
2026-05-05 21:49 -30.40177 141.24726 41278 ft 539 kts 82°
2026-05-05 21:49 -30.38760 141.42037 41278 ft 539 kts 82°
2026-05-05 21:50 -30.37322 141.59315 41279 ft 540 kts 82°
2026-05-05 21:50 -30.35859 141.76617 41279 ft 540 kts 82°
2026-05-05 21:51 -30.34373 141.93920 41272 ft 540 kts 81°
2026-05-05 21:51 -30.32864 142.11223 41277 ft 541 kts 81°
2026-05-05 21:52 -30.30555 142.37193 41272 ft 541 kts 81°
2026-05-05 21:53 -30.28987 142.54507 41272 ft 541 kts 81°
2026-05-05 21:53 -30.27403 142.71740 41272 ft 542 kts 81°
2026-05-05 21:54 -30.25788 142.89057 41267 ft 542 kts 81°
2026-05-05 21:54 -30.24148 143.06385 41267 ft 542 kts 81°
2026-05-05 21:55 -30.22505 143.23713 41267 ft 543 kts 81°
2026-05-05 21:55 -30.21003 143.41080 41264 ft 543 kts 81°
2026-05-05 21:56 -30.19459 143.58483 41265 ft 544 kts 81°
2026-05-05 21:56 -30.17886 143.75845 41263 ft 544 kts 81°
2026-05-05 21:57 -30.16289 143.93236 41263 ft 544 kts 81°
2026-05-05 21:57 -30.14668 144.10633 41262 ft 545 kts 81°
2026-05-05 21:58 -30.13024 144.28031 41252 ft 545 kts 80°
2026-05-05 21:58 -30.11354 144.45445 41252 ft 545 kts 80°
2026-05-05 21:59 -30.09663 144.62836 41250 ft 546 kts 80°
2026-05-05 21:59 -30.07943 144.80278 41247 ft 546 kts 80°
2026-05-05 22:00 -30.06204 144.97683 41254 ft 547 kts 80°
2026-05-05 22:00 -30.04435 145.15150 41247 ft 547 kts 79°
2026-05-05 22:01 -30.02644 145.32569 41255 ft 548 kts 79°
2026-05-05 22:01 -30.00836 145.50030 41244 ft 548 kts 79°
2026-05-05 22:02 -29.98987 145.67510 41243 ft 549 kts 79°
2026-05-05 22:02 -29.97124 145.84983 41234 ft 549 kts 79°
2026-05-05 22:03 -29.95231 146.02503 41238 ft 550 kts 79°
2026-05-05 22:03 -29.93316 146.19994 41234 ft 550 kts 79°
2026-05-05 22:04 -29.91375 146.37514 41235 ft 551 kts 79°
2026-05-05 22:04 -29.89408 146.55043 41227 ft 552 kts 78°
2026-05-05 22:05 -29.87420 146.72556 41227 ft 552 kts 78°
2026-05-05 22:05 -29.85402 146.90117 41222 ft 553 kts 78°
2026-05-05 22:06 -29.83375 147.07545 41217 ft 553 kts 78°
2026-05-05 22:06 -29.81309 147.25105 41221 ft 554 kts 78°
2026-05-05 22:07 -29.79216 147.42692 41217 ft 555 kts 78°
2026-05-05 22:07 -29.77084 147.60402 41212 ft 555 kts 78°
2026-05-05 22:08 -29.74950 147.77930 41208 ft 556 kts 78°
2026-05-05 22:08 -29.72780 147.95549 41206 ft 557 kts 77°
2026-05-05 22:09 -29.70585 148.13178 41203 ft 558 kts 77°
2026-05-05 22:09 -29.68736 148.27874 41196 ft 558 kts 77°
2026-05-05 22:10 -29.66476 148.45660 41200 ft 559 kts 77°
2026-05-05 22:10 -29.64218 148.63237 41193 ft 559 kts 77°
2026-05-05 22:11 -29.61923 148.80919 41189 ft 560 kts 77°
2026-05-05 22:11 -29.59603 148.98598 41187 ft 560 kts 77°
2026-05-05 22:12 -29.57254 149.16313 41178 ft 560 kts 77°
2026-05-05 22:12 -29.54883 149.34008 41177 ft 561 kts 77°
2026-05-05 22:13 -29.52488 149.51703 41176 ft 561 kts 77°
2026-05-05 22:13 -29.50065 149.69417 41172 ft 562 kts 76°
2026-05-05 22:14 -29.47619 149.87117 41165 ft 562 kts 76°
2026-05-05 22:14 -29.45145 150.04846 41162 ft 562 kts 76°
2026-05-05 22:15 -29.42646 150.22582 41159 ft 563 kts 76°
2026-05-05 22:15 -29.40079 150.40287 41144 ft 561 kts 72°
2026-05-05 22:15 -29.37391 150.48507 41150 ft 546 kts 57°
2026-05-05 22:16 -29.33831 150.56161 41151 ft 544 kts 53°
2026-05-05 22:16 -29.26387 150.71269 41149 ft 545 kts 53°
2026-05-05 22:17 -29.18991 150.86471 41148 ft 546 kts 53°
2026-05-05 22:17 -29.11641 151.01562 41154 ft 547 kts 53°
2026-05-05 22:18 -29.04224 151.16749 41140 ft 548 kts 53°
2026-05-05 22:18 -28.96710 151.32027 41155 ft 548 kts 53°
2026-05-05 22:19 -28.88787 151.45907 41155 ft 531 kts 39°
2026-05-05 22:19 -28.83760 151.52055 41158 ft 530 kts 38°
2026-05-05 22:20 -28.78697 151.58182 41013 ft 531 kts 37°
2026-05-05 22:20 -28.76170 151.61237 40774 ft 531 kts 37°
2026-05-05 22:20 -28.73626 151.64310 40533 ft 531 kts 37°
2026-05-05 22:20 -28.71088 151.67371 40293 ft 532 kts 37°
2026-05-05 22:21 -28.68551 151.70429 40059 ft 533 kts 37°
2026-05-05 22:21 -28.66003 151.73500 39840 ft 533 kts 37°
2026-05-05 22:21 -28.63451 151.76571 39599 ft 534 kts 37°
2026-05-05 22:21 -28.60902 151.79638 39368 ft 535 kts 37°
2026-05-05 22:22 -28.58339 151.82718 39144 ft 535 kts 37°
2026-05-05 22:22 -28.55782 151.85789 38919 ft 536 kts 36°
2026-05-05 22:22 -28.53215 151.88869 38654 ft 537 kts 36°
2026-05-05 22:22 -28.50640 151.91955 38113 ft 538 kts 37°
2026-05-05 22:23 -28.48062 151.95045 37407 ft 537 kts 36°
2026-05-05 22:23 -28.45507 151.98106 36873 ft 533 kts 37°
2026-05-05 22:23 -28.42961 152.01154 36338 ft 531 kts 37°
2026-05-05 22:23 -28.40412 152.04199 35830 ft 530 kts 37°
2026-05-05 22:24 -28.37867 152.07239 35320 ft 531 kts 37°
2026-05-05 22:24 -28.35326 152.10271 34826 ft 531 kts 38°
2026-05-05 22:24 -28.32772 152.13316 34346 ft 532 kts 38°
2026-05-05 22:24 -28.30224 152.16352 33816 ft 533 kts 38°
2026-05-05 22:25 -28.27661 152.19405 33259 ft 533 kts 38°
2026-05-05 22:25 -28.25109 152.22444 32720 ft 533 kts 38°
2026-05-05 22:25 -28.22549 152.25489 32188 ft 533 kts 39°
2026-05-05 22:25 -28.19996 152.28523 31673 ft 532 kts 39°
2026-05-05 22:26 -28.17441 152.31559 31163 ft 532 kts 39°
2026-05-05 22:26 -28.14882 152.34596 30658 ft 532 kts 39°
2026-05-05 22:26 -28.12321 152.37633 30157 ft 532 kts 39°
2026-05-05 22:26 -28.09771 152.40654 29599 ft 531 kts 39°
2026-05-05 22:27 -28.07221 152.43677 29057 ft 529 kts 39°
2026-05-05 22:27 -28.04698 152.46665 28530 ft 525 kts 39°
2026-05-05 22:27 -28.02218 152.49698 28008 ft 524 kts 43°
2026-05-05 22:27 -28.00033 152.53009 27666 ft 524 kts 50°
2026-05-05 22:28 -27.98037 152.56370 27399 ft 522 kts 50°
2026-05-05 22:28 -27.96030 152.59796 27147 ft 520 kts 51°
2026-05-05 22:28 -27.94042 152.63198 26892 ft 518 kts 51°
2026-05-05 22:28 -27.92055 152.66597 26516 ft 517 kts 51°
2026-05-05 22:29 -27.90079 152.69977 25971 ft 514 kts 51°
2026-05-05 22:29 -27.88112 152.73342 25308 ft 511 kts 51°
2026-05-05 22:29 -27.86156 152.76682 24485 ft 505 kts 51°
2026-05-05 22:29 -27.84272 152.79912 23670 ft 480 kts 51°
2026-05-05 22:30 -27.82472 152.82997 22713 ft 459 kts 51°
2026-05-05 22:30 -27.80614 152.85825 21791 ft 440 kts 42°
2026-05-05 22:30 -27.78374 152.88063 20882 ft 425 kts 33°
2026-05-05 22:30 -27.76244 152.90391 19996 ft 424 kts 41°
2026-05-05 22:31 -27.74219 152.92785 19136 ft 423 kts 41°
2026-05-05 22:31 -27.72195 152.95126 18280 ft 410 kts 41°
2026-05-05 22:31 -27.70199 152.97397 17320 ft 407 kts 41°
2026-05-05 22:31 -27.68226 152.99617 16397 ft 399 kts 41°
2026-05-05 22:32 -27.68196 152.99651 16386 ft 398 kts 41°
2026-05-05 22:32 -27.66435 153.01623 15576 ft 394 kts 41°